EXPRESS-AM5

Last updated on Mon Jun 22 2026 00:03:05 GMT+0000 (Coordinated Universal Time)

1 39487U 13077A 26172.58123913 -.00000281 00000+0 00000+0 0 9999 2 39487 0.0148 293.4123 0000278 48.4894 277.1456 1.00271926 46408
UTC large
Height (km)
Speed (km/s)
/
Latitude / Longitude
Inclination (degrees)
Orbital Period (minutes)
Azimuth
Elevation
Range (km)
Doppler Factor

Next 0 passes for location: London (51.5072 / 0.1276)

No passes found over London.
EXPRESS-AM5